• In Uzbekistan
  • List of Countries
  • For 7 days
  • Water Temperature
  • Satellite Maps
  • Weather Map
  • Weather Widgets
  • user-avatar
    Login

    Hourly Weather Bregenz

    Today, 17 October, Tuesday

    Time Temperature Precipitation Wind Pressure Humidity
    00:00 +9°C° 0 mm 1 mps 653 mmHg 60%
    01:00 +8°C° 0 mm 2 mps 653 mmHg 55%
    02:00 +8°C° 0 mm 2 mps 652 mmHg 55%
    03:00 +9°C° 0 mm 1 mps 652 mmHg 55%
    04:00 +8°C° 0 mm 1 mps 652 mmHg 54%
    05:00 +8°C° 0 mm 1 mps 652 mmHg 54%
    06:00 +8°C° 0 mm 1 mps 652 mmHg 54%
    07:00 +7°C° 0 mm 1 mps 651 mmHg 55%
    08:00 +10°C° 0 mm 1 mps 652 mmHg 51%
    09:00 +12°C° 0 mm 1 mps 653 mmHg 47%
    10:00 +15°C° 0 mm 1 mps 653 mmHg 43%
    11:00 +16°C° 0 mm 1 mps 653 mmHg 41%
    12:00 +18°C° 0 mm 1 mps 653 mmHg 39%
    13:00 +20°C° 0 mm 1 mps 653 mmHg 38%
    14:00 +19°C° 0 mm 1 mps 653 mmHg 45%
    15:00 +18°C° 0 mm 1 mps 652 mmHg 52%
    16:00 +15°C° 0 mm 0 mps 651 mmHg 59%
    17:00 +14°C° 0 mm 1 mps 651 mmHg 62%
    18:00 +12°C° 0 mm 1 mps 650 mmHg 65%
    19:00 +10°C° 0 mm 1 mps 650 mmHg 68%
    20:00 +9°C° 0 mm 1 mps 649 mmHg 65%
    21:00 +9°C° 0 mm 1 mps 649 mmHg 63%
    22:00 +7°C° 0 mm 2 mps 649 mmHg 61%
    23:00 +7°C° 0 mm 2 mps 649 mmHg 59%

    Tomorrow, 18 October, Wednesday

    Time Temperature Precipitation Wind Pressure Humidity
    00:00 +7°C° 0 mm 2 mps 648 mmHg 58%
    01:00 +6°C° 0 mm 2 mps 648 mmHg 56%
    02:00 +6°C° 0 mm 2 mps 648 mmHg 55%
    03:00 +6°C° 0 mm 2 mps 647 mmHg 55%
    04:00 +5°C° 0 mm 2 mps 647 mmHg 54%
    05:00 +5°C° 0 mm 2 mps 647 mmHg 53%
    06:00 +5°C° 0 mm 2 mps 647 mmHg 52%
    07:00 +5°C° 0 mm 2 mps 646 mmHg 51%
    08:00 +8°C° 0 mm 1 mps 647 mmHg 48%
    09:00 +11°C° 0 mm 1 mps 648 mmHg 46%
    10:00 +14°C° 0 mm 1 mps 648 mmHg 43%
    11:00 +15°C° 0 mm 1 mps 648 mmHg 42%
    12:00 +16°C° 0 mm 1 mps 648 mmHg 40%
    13:00 +18°C° 0 mm 1 mps 648 mmHg 39%
    14:00 +16°C° 0 mm 1 mps 648 mmHg 45%
    15:00 +15°C° 0 mm 1 mps 647 mmHg 51%
    16:00 +15°C° 0 mm 1 mps 647 mmHg 57%
    17:00 +12°C° 0 mm 1 mps 647 mmHg 64%
    18:00 +10°C° 0 mm 1 mps 646 mmHg 70%
    19:00 +8°C° 0 mm 1 mps 646 mmHg 76%
    20:00 +7°C° 0 mm 1 mps 646 mmHg 76%
    21:00 +7°C° 0 mm 1 mps 646 mmHg 75%
    22:00 +6°C° 0 mm 2 mps 646 mmHg 75%
    23:00 +5°C° 0 mm 2 mps 646 mmHg 74%

    Day after tomorrow, 19 October, Thursday

    Time Temperature Precipitation Wind Pressure Humidity
    00:00 +5°C° 0 mm 2 mps 645 mmHg 73%
    01:00 +5°C° 0 mm 2 mps 645 mmHg 72%
    02:00 +5°C° 0 mm 2 mps 645 mmHg 71%
    03:00 +4°C° 0 mm 2 mps 645 mmHg 70%
    04:00 +4°C° 0 mm 2 mps 645 mmHg 68%
    05:00 +4°C° 0 mm 2 mps 645 mmHg 67%
    06:00 +4°C° 0 mm 2 mps 645 mmHg 66%
    07:00 +4°C° 0 mm 2 mps 645 mmHg 65%
    08:00 +7°C° 0 mm 1 mps 645 mmHg 60%
    09:00 +10°C° 0 mm 1 mps 646 mmHg 54%
    10:00 +13°C° 0 mm 1 mps 647 mmHg 48%
    11:00 +14°C° 0 mm 1 mps 647 mmHg 45%
    12:00 +15°C° 0 mm 1 mps 647 mmHg 43%
    13:00 +16°C° 0 mm 1 mps 647 mmHg 41%
    14:00 +15°C° 0 mm 1 mps 647 mmHg 49%
    15:00 +14°C° 0 mm 1 mps 647 mmHg 56%
    16:00 +13°C° 0 mm 1 mps 646 mmHg 63%
    17:00 +12°C° 0 mm 1 mps 646 mmHg 67%
    18:00 +10°C° 0 mm 1 mps 646 mmHg 71%
    19:00 +9°C° 0 mm 1 mps 646 mmHg 74%
    20:00 +8°C° 0 mm 1 mps 646 mmHg 74%
    21:00 +8°C° 0 mm 1 mps 646 mmHg 74%
    22:00 +8°C° 0 mm 1 mps 646 mmHg 74%
    23:00 +8°C° 0 mm 1 mps 646 mmHg 74%

    20 October, Friday

    Time Temperature Precipitation Wind Pressure Humidity
    00:00 +7°C° 0 mm 1 mps 646 mmHg 74%
    01:00 +7°C° 0 mm 1 mps 646 mmHg 74%
    02:00 +7°C° 0 mm 1 mps 646 mmHg 74%
    03:00 +7°C° 0 mm 1 mps 646 mmHg 75%
    04:00 +5°C° 0 mm 2 mps 646 mmHg 75%
    05:00 +6°C° 0 mm 1 mps 646 mmHg 74%
    06:00 +6°C° 0 mm 1 mps 646 mmHg 74%
    07:00 +6°C° 0 mm 1 mps 646 mmHg 73%
    08:00 +8°C° 0 mm 1 mps 647 mmHg 67%
    09:00 +11°C° 0 mm 1 mps 648 mmHg 61%
    10:00 +12°C° 0 mm 0 mps 649 mmHg 54%
    11:00 +14°C° 0 mm 1 mps 649 mmHg 52%
    12:00 +15°C° 0 mm 1 mps 649 mmHg 50%
    13:00 +16°C° 0 mm 1 mps 649 mmHg 48%
    14:00 +15°C° 0 mm 1 mps 649 mmHg 52%
    15:00 +15°C° 0 mm 1 mps 649 mmHg 57%
    16:00 +15°C° 0 mm 1 mps 649 mmHg 61%
    17:00 +12°C° 0 mm 1 mps 648 mmHg 66%
    18:00 +10°C° 0 mm 1 mps 648 mmHg 72%
    19:00 +8°C° 0 mm 1 mps 648 mmHg 77%
    20:00 +8°C° 0 mm 1 mps 648 mmHg 76%
    21:00 +8°C° 0 mm 1 mps 648 mmHg 76%
    22:00 +7°C° 0 mm 2 mps 648 mmHg 75%
    23:00 +7°C° 0 mm 2 mps 648 mmHg 74%

    21 October, Saturday

    Time Temperature Precipitation Wind Pressure Humidity
    00:00 +6°C° 0 mm 2 mps 648 mmHg 73%
    01:00 +6°C° 0 mm 2 mps 647 mmHg 73%
    02:00 +6°C° 0 mm 2 mps 647 mmHg 72%
    03:00 +6°C° 0 mm 2 mps 647 mmHg 71%
    04:00 +6°C° 0 mm 2 mps 647 mmHg 70%
    05:00 +6°C° 0 mm 2 mps 647 mmHg 68%
    06:00 +5°C° 0 mm 2 mps 647 mmHg 67%
    07:00 +5°C° 0 mm 2 mps 647 mmHg 66%
    08:00 +8°C° 0 mm 2 mps 647 mmHg 60%
    09:00 +11°C° 0 mm 1 mps 648 mmHg 55%
    10:00 +14°C° 0 mm 1 mps 649 mmHg 50%
    11:00 +15°C° 0 mm 1 mps 649 mmHg 48%
    12:00 +16°C° 0 mm 2 mps 649 mmHg 46%
    13:00 +17°C° 0 mm 2 mps 649 mmHg 44%
    14:00 +16°C° 0 mm 2 mps 649 mmHg 51%
    15:00 +14°C° 0 mm 2 mps 649 mmHg 58%
    16:00 +13°C° 0 mm 2 mps 648 mmHg 65%
    17:00 +12°C° 0 mm 2 mps 648 mmHg 74%
    18:00 +10°C° 0 mm 1 mps 648 mmHg 82%
    19:00 +9°C° 0 mm 1 mps 648 mmHg 90%
    20:00 +8°C° 0.2 mm 1 mps 648 mmHg 91%
    21:00 +8°C° 0.2 mm 1 mps 648 mmHg 93%
    22:00 +8°C° 0.2 mm 1 mps 648 mmHg 94%
    23:00 +8°C° 1.7 mm 1 mps 648 mmHg 95%

    22 October, Sunday

    Time Temperature Precipitation Wind Pressure Humidity
    00:00 +6°C° 1.7 mm 2 mps 648 mmHg 96%
    01:00 +5°C° 1.7 mm 3 mps 647 mmHg 97%
    02:00 +4°C° 1.9 mm 3 mps 647 mmHg 97%
    03:00 +5°C° 1.9 mm 2 mps 647 mmHg 97%
    04:00 +4°C° 1.9 mm 2 mps 647 mmHg 97%
    05:00 +4°C° 1.6 mm 2 mps 647 mmHg 96%
    06:00 +4°C° 1.6 mm 2 mps 647 mmHg 96%
    07:00 +3°C° 1.6 mm 2 mps 647 mmHg 96%
    08:00 +3°C° 1.8 mm 2 mps 647 mmHg 96%
    09:00 +3°C° 1.8 mm 2 mps 647 mmHg 95%
    10:00 +3°C° 1.8 mm 2 mps 647 mmHg 95%
    11:00 +2°C° 1.3 mm 3 mps 647 mmHg 94%
    12:00 +2°C° 1.3 mm 3 mps 647 mmHg 94%
    13:00 +2°C° 1.3 mm 3 mps 647 mmHg 93%
    14:00 +2°C° 0.5 mm 3 mps 647 mmHg 93%
    15:00 +2°C° 0.5 mm 3 mps 648 mmHg 92%
    16:00 +2°C° 0.5 mm 2 mps 648 mmHg 92%
    17:00 +2°C° 0.1 mm 2 mps 648 mmHg 93%
    18:00 +1°C° 0.1 mm 2 mps 648 mmHg 94%
    19:00 +1°C° 0.1 mm 2 mps 648 mmHg 95%
    20:00 -1°C° 0.1 mm 2 mps 649 mmHg 95%
    21:00 -1°C° 0.1 mm 2 mps 649 mmHg 95%
    22:00 -1°C° 0.1 mm 2 mps 649 mmHg 95%
    23:00 -2°C° 0.1 mm 2 mps 649 mmHg 95%
    Show more